CW2856 Weather Reports


time (UTC)temp
F
wind
direction
speed
knots
gust
knots
rain 1hr
in
rain 24hr
in
rain mn
in
humidity
%
barometer
mb
20260505213313 49 38 12.2 17.4 0.00 0.00 0.00 77 1008.6
20260505211816 49 46 12.2 19.1 0.00 0.00 0.00 78 1008.6
20260505210319 49 38 12.2 20.9 0.00 0.00 0.00 78 1008.7
20260505204824 49 42 12.2 18.2 0.00 0.00 0.00 78 1008.5
20260505203326 50 42 13.0 18.2 0.00 0.00 0.00 77 1008.7
20260505201827 50 24 13.0 20.0 0.00 0.00 0.00 78 1008.6
20260505200336 50 36 13.9 20.9 0.00 0.00 0.00 78 1008.6
20260505194836 50 24 13.9 20.0 0.00 0.00 0.00 75 1008.7
20260505193328 51 30 284.2 23.5 0.00 0.00 0.00 74 1008.5
20260505191852 0 0.0 0.0 0.00 0.00 0.00 1008.5
20260505190353 0 0.0 0.0 0.00 0.00 0.00 1008.5
20260505184830 0 0.0 0.0 0.00 0.00 0.00 1008.2
20260505183316 0 0.0 0.0 0.00 0.00 0.00 1008.0
20260505181837 0 0.0 0.0 0.00 0.00 0.00 1008.1
20260505180338 0 0.0 0.0 0.00 0.00 0.00 1008.2
20260505174822 0 0.0 0.0 0.00 0.00 0.00 1008.0
20260505173345 0 0.0 0.0 0.00 0.00 0.00 1007.9
20260505171816 0 0.0 0.0 0.00 0.00 0.00 1007.4
20260505170336 0 0.0 0.0 0.00 0.00 0.00 1007.4
20260505164829 54 35 13.0 20.0 0.00 0.00 0.00 70 1007.5
20260505163314 54 36 15.6 23.5 0.00 0.00 0.00 70 1007.6
20260505161815 53 48 13.9 18.2 0.00 0.00 0.00 72 1007.8
20260505160321 53 30 11.3 20.0 0.00 0.00 0.00 73 1007.6
20260505153318 53 15 13.0 23.5 0.00 0.00 0.00 74 1007.0
20260505151823 53 46 13.0 20.9 0.00 0.00 0.00 76 1007.1
20260505150324 54 58 10.4 18.2 0.00 0.00 0.00 80 1007.2
20260505140316 54 59 10.4 22.6 0.00 0.00 0.00 76 1006.4
20260505124853 53 34 11.3 25.2 0.00 0.00 0.00 78 1006.3
20260505123313 53 47 15.6 22.6 0.00 0.00 0.00 80 1005.6
20260505121818 54 61 13.9 24.3 0.00 0.00 0.00 81 1005.2
20260505120322 54 43 15.6 20.9 0.00 0.00 0.00 85 1005.1
20260505114826 54 36 12.2 17.4 0.00 0.00 0.00 86 1004.6
20260505113327 54 39 10.4 17.4 0.00 0.00 0.00 86 1004.6
20260505111828 54 28 8.7 15.6 0.00 0.00 0.00 85 1004.7
20260505110315 55 22 12.2 16.5 0.00 0.00 0.00 84 1004.2
20260505101821 57 82 11.3 16.5 0.00 0.00 0.00 82 1004.3
20260505100324 58 15 10.4 14.8 0.00 0.00 0.00 82 1004.1
20260505094830 60 71 8.7 13.9 0.00 0.00 0.00 81 1003.9
20260505093331 60 58 9.6 15.6 0.00 0.00 0.00 80 1003.7
20260505091852 63 40 11.3 14.8 0.00 0.00 0.00 77 1003.1
20260505090320 64 44 7.0 12.2 0.00 0.00 0.00 81 1003.8
20260505084820 65 343 3.5 7.8 0.00 0.00 0.00 82 1003.7
20260505083325 64 345 3.5 9.6 0.00 0.00 0.00 83 1003.2
20260505081846 63 319 4.3 7.0 0.00 0.00 0.00 83 1002.7
20260505080328 64 325 2.6 7.0 0.00 0.00 0.00 82 1002.0
20260505074833 65 208 1.7 6.1 0.00 0.00 0.00 81 1001.2
20260505073313 65 212 1.7 6.1 0.00 0.00 0.00 78 1001.2
20260505071853 66 233 2.6 7.0 0.00 0.00 0.00 78 1001.1
20260505070320 66 333 2.6 4.3 0.00 0.00 0.00 78 1000.9
20260505064820 66 84 0.9 6.1 0.00 0.00 0.00 81 999.8
20260505063325 67 261 7.8 15.6 0.00 0.00 0.00 80 1001.7
20260505061826 69 175 9.6 16.5 0.00 0.00 0.00 73 1002.2
20260505060350 70 229 7.0 13.9 0.00 0.00 0.00 71 1002.1
20260505054853 70 173 3.5 7.8 0.00 0.00 0.00 71 1001.9
20260505053313 70 174 4.3 7.8 0.00 0.00 0.00 71 1002.1
20260505051814 70 186 4.3 7.0 0.00 0.00 0.00 70 1002.1
20260505050322 70 177 4.3 7.8 0.00 0.00 0.00 70 1002.4
20260505040313 70 196 7.0 13.9 0.00 0.00 0.00 70 1001.5
20260505034818 70 159 5.2 8.7 0.00 0.00 0.00 70 1002.1
20260505033319 70 172 6.1 9.6 0.00 0.00 0.00 70 1002.2
20260505031823 70 159 5.2 9.6 0.00 0.00 0.00 70 1002.2
20260505030327 70 163 7.0 9.6 0.00 0.00 0.00 70 1002.1
20260505024847 71 172 5.2 9.6 0.00 0.00 0.00 69 1002.2
20260505023330 71 178 2.6 6.1 0.00 0.00 0.00 69 1002.4
20260505021850 72 196 3.5 7.8 0.00 0.00 0.00 67 1002.0
20260505020329 73 176 2.6 7.0 0.00 0.00 0.00 65 1002.1
20260505014813 73 212 4.3 9.6 0.00 0.00 0.00 63 1001.9
20260505013313 74 196 6.1 10.4 0.00 0.00 0.00 63 1001.7
20260505011818 74 206 6.1 10.4 0.00 0.00 0.00 63 1001.6
20260505010318 74 171 5.2 9.6 0.00 0.00 0.00 62 1001.4
20260505004819 75 192 6.1 14.8 0.00 0.00 0.00 62 1001.6
20260505003326 75 196 5.2 12.2 0.00 0.00 0.00 62 1001.5
20260505001827 76 209 7.0 13.0 0.00 0.00 0.00 63 1001.4
20260505000351 76 189 6.1 13.0 0.00 0.00 0.00 63 1001.4
20260504234832 77 209 7.0 14.8 0.00 0.00 0.00 62 1001.0
20260504233315 77 225 7.8 15.6 0.00 0.00 0.00 61 1001.1
20260504231820 77 189 7.0 15.6 0.00 0.00 0.00 61 1001.2
20260504230321 78 209 9.6 17.4 0.00 0.00 0.00 60 1001.2
20260504224823 78 178 8.7 14.8 0.00 0.00 0.00 61 1001.1
20260504223329 79 225 7.8 16.5 0.00 0.00 0.00 59 1001.0
20260504221849 80 228 9.6 16.5 0.00 0.00 0.00 58 1000.9
20260504220316 79 200 8.7 17.4 0.00 0.00 0.00 60 1001.1
20260504214839 80 227 7.8 17.4 0.00 0.00 0.00 58 1001.1